Time,TemperatureF,DewpointF,PressureIn,WindDirection,WindDirectionDegrees,WindSpeedMPH,WindSpeedGustMPH,Humidity,HourlyPrecipIn,Conditions,Clouds,dailyrainin,SoftwareType,DateUTC
2013-09-29 00:43:00,50.0,49.0,29.62,NW,310,0.0,1.0,96,-99.99,,,-99.99,,2013-09-29 07:43:00,
2013-09-29 01:22:00,49.0,48.0,29.63,South,178,2.0,4.0,96,-99.99,,,-99.99,,2013-09-29 08:22:00,
2013-09-29 01:42:00,49.0,48.0,29.64,North,350,1.0,2.0,96,-99.99,,,-99.99,,2013-09-29 08:42:00,
2013-09-29 02:11:00,49.0,48.0,29.64,SSW,197,2.0,6.0,95,-99.99,,,-99.99,,2013-09-29 09:11:00,
2013-09-29 02:22:00,51.0,48.0,29.65,West,276,7.0,11.0,88,-99.99,,,-99.99,,2013-09-29 09:22:00,
2013-09-29 03:23:00,50.0,49.0,29.66,East,100,1.0,2.0,97,-99.99,,,-99.99,,2013-09-29 10:23:00,
2013-09-29 03:43:00,49.0,48.0,29.66,SSW,202,1.0,1.0,97,-99.99,,,-99.99,,2013-09-29 10:43:00,
2013-09-29 04:22:00,49.0,48.0,29.65,South,184,2.0,3.0,98,-99.99,,,-99.99,,2013-09-29 11:22:00,
2013-09-29 04:42:00,48.0,48.0,29.66,SSW,203,1.0,3.0,98,-99.99,,,-99.99,,2013-09-29 11:42:00,
2013-09-29 05:12:00,48.0,47.0,29.66,WNW,284,3.0,4.0,98,-99.99,,,-99.99,,2013-09-29 12:12:00,
2013-09-29 05:21:00,48.0,48.0,29.65,WNW,293,2.0,3.0,98,-99.99,,,-99.99,,2013-09-29 12:21:00,
2013-09-29 05:42:00,48.0,48.0,29.65,SSE,159,1.0,3.0,98,-99.99,,,-99.99,,2013-09-29 12:42:00,
2013-09-29 05:52:00,49.0,48.0,29.64,NNW,328,2.0,3.0,98,-99.99,,,-99.99,,2013-09-29 12:52:00,
2013-09-29 06:22:00,49.0,49.0,29.65,NNW,344,0.0,1.0,98,-99.99,,,-99.99,,2013-09-29 13:22:00,
2013-09-29 06:42:00,50.0,49.0,29.67,NNW,339,1.0,4.0,98,-99.99,,,-99.99,,2013-09-29 13:42:00,
2013-09-29 07:11:00,50.0,49.0,29.66,SE,125,1.0,1.0,98,-99.99,,,-99.99,,2013-09-29 14:11:00,
2013-09-29 07:21:00,50.0,49.0,29.65,SE,145,2.0,4.0,98,-99.99,,,-99.99,,2013-09-29 14:21:00,
2013-09-29 07:42:00,50.0,49.0,29.66,SSW,195,1.0,1.0,98,-99.99,,,-99.99,,2013-09-29 14:42:00,
2013-09-29 08:22:00,50.0,50.0,29.67,West,269,3.0,3.0,98,-99.99,,,-99.99,,2013-09-29 15:22:00,
2013-09-29 08:45:00,50.0,50.0,29.66,ENE,74,1.0,3.0,98,-99.99,,,-99.99,,2013-09-29 15:45:00,
2013-09-29 09:24:00,51.0,51.0,29.66,WNW,293,2.0,2.0,98,-99.99,,,-99.99,,2013-09-29 16:24:00,
2013-09-29 09:44:00,52.0,51.0,29.66,WNW,303,0.0,1.0,98,-99.99,,,-99.99,,2013-09-29 16:44:00,
2013-09-29 10:23:00,52.0,51.0,29.68,SSW,193,1.0,2.0,97,-99.99,,,-99.99,,2013-09-29 17:23:00,
2013-09-29 10:43:00,52.0,52.0,29.69,SSE,152,1.0,3.0,97,-99.99,,,-99.99,,2013-09-29 17:43:00,
2013-09-29 11:22:00,54.0,53.0,29.69,East,90,2.0,4.0,96,-99.99,,,-99.99,,2013-09-29 18:22:00,
2013-09-29 11:42:00,54.0,53.0,29.69,ENE,59,2.0,3.0,95,-99.99,,,-99.99,,2013-09-29 18:42:00,
2013-09-29 12:21:00,54.0,53.0,29.70,ESE,108,2.0,3.0,93,-99.99,,,-99.99,,2013-09-29 19:21:00,
2013-09-29 12:42:00,54.0,52.0,29.69,NNE,22,2.0,3.0,93,-99.99,,,-99.99,,2013-09-29 19:42:00,
2013-09-29 13:22:00,55.0,52.0,29.70,ESE,102,1.0,1.0,90,-99.99,,,-99.99,,2013-09-29 20:22:00,
2013-09-29 13:42:00,54.0,52.0,29.69,South,189,1.0,4.0,91,-99.99,,,-99.99,,2013-09-29 20:42:00,
2013-09-29 14:21:00,54.0,51.0,29.68,SSW,205,1.0,3.0,90,-99.99,,,-99.99,,2013-09-29 21:21:00,
2013-09-29 14:44:00,53.0,51.0,29.67,SSE,166,2.0,3.0,91,-99.99,,,-99.99,,2013-09-29 21:44:00,
2013-09-29 15:23:00,54.0,52.0,29.65,NNE,24,1.0,3.0,92,-99.99,,,-99.99,,2013-09-29 22:23:00,
2013-09-29 15:43:00,54.0,51.0,29.64,NE,50,3.0,4.0,91,-99.99,,,-99.99,,2013-09-29 22:43:00,
2013-09-29 16:43:00,53.0,51.0,29.62,ENE,59,2.0,6.0,93,-99.99,,,-99.99,,2013-09-29 23:43:00,
2013-09-29 17:11:00,52.0,51.0,29.60,East,100,2.0,3.0,95,-99.99,,,-99.99,,2013-09-30 00:11:00,
2013-09-29 17:22:00,53.0,51.0,29.59,East,91,1.0,3.0,95,-99.99,,,-99.99,,2013-09-30 00:22:00,
2013-09-29 18:22:00,52.0,51.0,29.54,NE,55,3.0,4.0,97,-99.99,,,-99.99,,2013-09-30 01:22:00,
2013-09-29 19:22:00,51.0,51.0,29.50,WNW,295,1.0,3.0,98,-99.99,,,-99.99,,2013-09-30 02:22:00,
2013-09-29 20:22:00,51.0,50.0,29.46,North,351,1.0,4.0,97,-99.99,,,-99.99,,2013-09-30 03:22:00,
2013-09-29 20:44:00,51.0,51.0,29.44,South,171,1.0,2.0,97,-99.99,,,-99.99,,2013-09-30 03:44:00,
2013-09-29 22:12:00,51.0,51.0,29.38,NW,322,2.0,3.0,98,-99.99,,,-99.99,,2013-09-30 05:12:00,
2013-09-29 22:43:00,51.0,51.0,29.42,WNW,299,4.0,8.0,99,-99.99,,,-99.99,,2013-09-30 05:43:00,
2013-09-29 23:12:00,54.0,51.0,29.46,West,268,9.0,29.0,91,-99.99,,,-99.99,,2013-09-30 06:12:00,
2013-09-29 23:21:00,55.0,49.0,29.47,West,266,13.0,30.0,81,-99.99,,,-99.99,,2013-09-30 06:21:00,
2013-09-29 23:42:00,54.0,48.0,29.51,WSW,258,12.0,32.0,80,-99.99,,,-99.99,,2013-09-30 06:42:00,